Location: Berg
(47.2344°N, 9.5296°E)
Time: 22:39:07
(UTC+00:00)

Cosmos 2278 Rocket - Pass Details

Date: 24 January 2021
Orbit: 840 x 847 km, 71.0° (Epoch: 04 March)

Event Time Altitude Azimuth Distance (km) Brightness Sun altitude
Rises 19:02:39 0° 211° (SSW) 3,389 5.7 -28.8°
Reaches altitude 10° 19:05:05 10° 213° (SSW) 2,459 4.9 -29.2°
Enters shadow 19:10:28 72° 273° (W) 890 2.3 -30.1°
